www.pogodaiklimat.ru

Погода и климат >> Архив погоды >> Россия >> Крым >> Симферополь


АРХИВ ПОГОДЫ в Симферополе

Время (UTC), дата Ветер
(напр.,м/с)
 
Видим.   Явления Облачность Т
(С)
Тd
(С)
f
(%)
Тe
(С)
Тes
(С)
Комфортность P
(гПа)
Po
(гПа)
Тmin
(С)
Tmax
(С)
R
(мм)
R24
(мм)
S
(см)
12 11.10 В 11-14
{16}
10 км 1/0
[Ac lent]
+20.3 +9.2 49 +21 +21 комфорт 1021.7 1000.5
15 11.10 В 8-12
{15}
10 км 1/0
[Ac trans]
+17.0 +8.2 56 +16 +16 тепло 1022.2 1000.8
18 11.10 В 5
{12}
10 км ясно +13.4 +9.1 75 +11 +11 по сезону 1023.1 1001.4 +20.9
21 11.10 В 4 10 км ясно +11.3 +7.8 79 +9 +9 по сезону 1024.0 1002.1
00 12.10 В 6 10 км ясно +11.6 +9.9 89 +9 +9 по сезону 1023.8 1001.9
03 12.10 В 6 10 км ясно +12.0 +9.7 86 +9 +9 по сезону 1024.1 1002.3 +10.0
06 12.10 СВ 7 10 км 8/0
[Ci fib]
+14.3 +11.8 85 +12 +12 тепло 1025.2 1003.5 +10.0
09 12.10 В 10-14
{14}
10 км 1/0
[Ci sp]
+19.9 +9.8 52 +20 +21 тепло 1025.7 1004.4
12 12.10 В 12-15
{15}
10 км 1/0
[Ci sp]
+19.7 +7.4 45 +20 +20 тепло 1025.9 1004.6
15 12.10 В 11-15
{17}
10 км ясно +15.2 +9.6 69 +13 +13 по сезону 1025.9 1004.3
18 12.10 В 9-12
{15}
10 км ясно +12.5 +8.8 78 +9 +9 по сезону 1026.5 1004.6 +20.9
21 12.10 СВ 5
{13}
10 км ясно +11.2 +5.7 69 +9 +9 по сезону 1027.0 1005.0
00 13.10 В 8-12
{12}
10 км ясно +11.4 +4.2 61 +8 +8 по сезону 1026.2 1004.2
03 13.10 В 9-12
{14}
10 км ясно +10.4 +5.0 69 +6 +6 по сезону 1025.8 1003.8 +10.2
06 13.10 В 10-14
{15}
10 км ясно +13.0 +7.2 68 +10 +10 по сезону 1026.7 1004.9 +10.2
09 13.10 В 13-17
{17}
10 км ясно +18.1 +4.3 40 +17 +17 тепло 1025.6 1004.1
12 13.10 В 12-16
{17}
10 км ясно +17.8 +7.0 49 +16 +16 по сезону 1024.7 1003.3
15 13.10 СВ 11-14
{18}
10 км ясно +13.9 +5.3 56 +11 +11 по сезону 1025.4 1003.6
18 13.10 В 10-12
{16}
10 км ясно +11.5 +6.6 72 +8 +8 по сезону 1025.9 1004.0 +18.9
21 13.10 В 10-13
{13}
10 км ясно +11.4 +6.5 72 +8 +8 по сезону 1025.8 1003.9
00 14.10 В 8-12
{14}
10 км ясно +10.6 +1.7 54 +7 +7 по сезону 1025.8 1003.8
03 14.10 В 9-12
{12}
10 км ясно +10.9 +3.4 60 +7 +7 по сезону 1025.4 1003.4 +10.1
06 14.10 В 10-14
{14}
10 км ясно +14.1 +6.0 58 +11 +12 по сезону 1025.6 1003.9 +10.1
09 14.10 В 12-16
{16}
10 км ясно +19.4 +6.2 42 +19 +19 тепло 1025.1 1003.8
12 14.10 СВ 12-15
{17}
10 км 3/0
[Ci fib]
+20.6 +4.6 35 +20 +20 тепло 1023.8 1002.6
15 14.10 В 7-12
{16}
10 км 3/0
[Ci fib]
+16.0 +5.0 48 +15 +15 тепло 1024.8 1003.2
18 14.10 СВ 6
{10}
10 км ясно +12.6 +3.8 55 +10 +10 по сезону 1025.3 1003.4 +21.0
21 14.10 В 5 10 км ясно +13.0 +4.2 55 +11 +11 тепло 1025.5 1003.7
00 15.10 В 5 10 км ясно +10.0 +4.4 68 +7 +7 по сезону 1025.0 1003.0
03 15.10 В 6 10 км ясно +9.0 +3.2 67 +5 +5 прохладно 1024.8 1002.7 +8.8
06 15.10 В 5 10 км 6/0
[Ci fib]
+16.1 +4.5 46 +15 +16 тепло 1024.3 1002.7 +8.4
09 15.10 В 10-14
{15}
10 км 6/0
[Ci sp]
+20.8 +5.2 36 +21 +21 комфорт 1023.7 1002.5
12 15.10 В 9-12
{14}
10 км 3/0
[Ci sp]
+22.2 +7.6 39 +23 +24 комфорт 1022.6 1001.5
15 15.10 В 8-12
{13}
10 км 4/0
[Ci fib]
+17.3 +7.9 54 +16 +16 тепло 1023.3 1001.9
18 15.10 В 7
{12}
10 км ясно +13.2 +8.1 71 +11 +11 тепло 1024.1 1002.3 +23.1
21 15.10 В 7 10 км ясно +14.1 +6.5 60 +12 +12 тепло 1023.5 1001.8
00 16.10 СВ 3 10 км ясно +11.3 +6.6 73 +10 +10 тепло 1023.2 1001.3
03 16.10 СВ 6 10 км ясно +10.7 +8.3 85 +7 +7 по сезону 1023.1 1001.2 +10.1
06 16.10 В 9-12
{12}
10 км ясно +15.9 +11.1 73 +14 +14 тепло 1022.4 1000.9 +10.1
09 16.10 В 11-13
{14}
10 км ясно +23.0 +6.7 35 +24 +24 комфорт 1021.5 1000.5
12 16.10 СВ 10-13
{15}
10 км ясно +24.5 +9.3 38 +25 +25 комфорт 1020.9 1000.0
15 16.10 СВ 8-12
{14}
10 км ясно +18.2 +11.0 63 +18 +18 тепло 1021.7 1000.4
18 16.10 В 6
{12}
10 км ясно +14.2 +11.4 83 +12 +12 тепло 1022.7 1001.1 +25.5
21 16.10 В 3 10 км ясно +14.3 +10.1 76 +13 +13 тепло 1022.0 1000.4
00 17.10 В 6 10 км ясно +13.1 +9.7 80 +11 +11 тепло 1021.5 999.8
03 17.10 СВ 7 10 км ясно +12.0 +10.7 92 +9 +9 по сезону 1021.0 999.2 +11.1
06 17.10 СВ 7
{10}
10 км ясно +14.9 +11.5 80 +13 +13 тепло 1020.6 999.1 +11.1
09 17.10 СВ 10-13
{13}
10 км ясно +21.4 +11.7 54 +23 +24 комфорт 1019.4 998.4
12 17.10 В 11-14
{15}
10 км ясно +22.5 +12.2 52 +25 +25 комфорт 1018.6 997.7
15 17.10 В 8-12
{14}
10 км ясно +16.7 +11.8 73 +15 +15 тепло 1019.6 998.2
18 17.10 В 8-11
{12}
10 км ясно +14.6 +11.2 80 +12 +12 тепло 1020.2 998.6 +23.6
21 17.10 В 3
{11}
10 км ясно +13.7 +9.0 73 +13 +13 тепло 1019.8 998.2
00 18.10 В 1 10 км 3/3 100 м
[St]
+10.1 +8.4 89 +10 +10 тепло 1019.9 998.0
03 18.10 В 3 10 км ясно +9.2 +7.3 88 +7 +7 по сезону 1019.3 997.3 +7.4
06 18.10 В 7 10 км ясно +14.7 +10.5 76 +13 +13 тепло 1018.6 997.1 +7.4
09 18.10 В 6
{10}
10 км ясно +20.8 +11.7 56 +23 +25 комфорт 1017.9 996.8

 

Местоположение метеостанции Симферополь (Крым, Россия): широта 45.03 долгота 33.97 высота над уровнем моря 181 м.

В архиве по умолчанию представлена погода в Симферополе за последнюю неделю. Архивные данные за месяц целиком и за предыдущие месяцы, начиная с января 2011 года, Вы можете получить, выбрав интересующий диапазон дат из раскрывающегося списка и нажав кнопку "Ввод!".


*Определитесь, кто Вы:
робот инопланетянин человек

Внимание! Время в таблицах - всемирное. Для получения местного времени необходимо прибавить поправку, которая в Симферополе равна 3 ч.

Смотрите также архив погоды в соседних городах и на ближайших метеорологических станциях:

Погода в Симферополе город (Крым, Россия) (15 км)
Погода в Почтовом (Крым, Россия) (22 км)
Погода в Ангарском Перевале (Крым, Россия) (43 км)
Погода в Белогорске (Крым, Россия) (50 км)
Погода в Евпатории (Крым, Россия) (50 км)
Погода в Алуште (Крым, Россия) (52 км)
Погода в Севастополе (город Севастополь, Россия) (57 км)
Погода в Клепинино (Крым, Россия) (58 км)
Погода в Никитском саду (Крым, Россия) (61 км)
Погода в Ай-Петри (Крым, Россия) (63 км)

Пояснения к столбцам:

Ветер - указаны скорость ветра в м/с - средняя за 10 мин, порывы в срок и между сроками (в фигурных скобках) и направление, откуда дует ветер: С - северный, СВ - северо-восточный, В - восточный, ЮВ - юго-восточный, Ю - южный, ЮЗ - юго-западный, З - западный, СЗ - северо-западный.
Видимость - горизонтальная дальность видимости в метрах или километрах. При видимости от 1 до 10 км при отсутствии осадков обычно наблюдается дымка, при ухудшении видимости до 1 км и менее - туман. В сухую погоду видимость может ухудшаться дымом, пылью или мглою.
Явления - указаны атмосферные явления, наблюдавшиеся в срок или в последний час перед сроком; фигурными скобками обозначены явления, наблюдавшиеся между сроками (за 1-3 часа до срока); квадратными скобками обозначены град или гололедные отложения с указанием их диаметра в мм.
Облачность - указаны через наклонную черту общая и нижняя облачность в баллах и высота нижней границы облаков в метрах; квадратными скобками обозначены формы облаков: Ci - перистые, Cs - перисто-слоистые, Cc - перисто-кучевые, Ac - высококучевые, As - высокослоистые, Sc - слоисто-кучевые, Ns - слоисто-дождевые, Cu - кучевые, Cb - кучево-дождевые. Подробнее классификацию облаков см. в Атласе облаков (PDF).
T - Температура воздуха - температура, измеренная на высоте 2 м над землей.
Td - Температура точки росы - температура, при понижении до которой содержащийся в воздухе водяной пар достигнет насыщения.
f - Относительная влажность воздуха - влажноcть воздуха, измеренная на высоте 2 м над землей.
Te - Эффективная температура - температура, которую ощущает одетый по сезону человек в тени. Характеристика душности погоды. При расчете учитывается влияние влажности воздуха и скорости ветра на теплоощущения человека.
Tes - Эффективная температура на солнце - температура, которую ощущает человек, с поправкой на солнечный нагрев. Характеристика знойности погоды. Зависит от высоты солнца над горизонтом, облачности и скорости ветра. Ночью, в пасмурную погоду, а также при ветре 12 м/с и более поправка равна нулю.
P - Атмосферное давление - приведенное к уровню моря атмосферное давление.
Po - Атмосферное давление - измеренное на уровне метеостанции атмосферное давление.
Tmin - Минимальная температура - минимум температуры воздуха на высоте 2 м над землей.
Tmax - Максимальная температура - максимум температуры воздуха на высоте 2 м над землей.
R - Количество осадков - Количество выпавших осадков за период времени, мм. При наведении курсора мыши на число - период времени, за который выпало указанное количество осадков.
R24 - Количество осадков - Количество выпавших осадков за 24 часа, мм.
S - Снежный покров - Высота снежного покрова, см. При наведении курсора мыши на число - состояние снежного покрова и степень покрытия местности в баллах.